Regional Weather Roundup
Issued by NWS

Home | Current Version | Previous Version | Graphics & Text | Print | Product List | Glossary On
Versions: 1 2 3 4 5 6 7 8 9 10 11 12 13 14 15 16 17 18 19 20 21 22 23 24 25 26 27 28 29 30 31 32 33 34 35 36 37 38 39 40 41 42 43 44 45 46 47 48 49 50
623
ASUS45 KABQ 280301
RWRNM
NEW MEXICO REGIONAL WEATHER ROUNDUP
NATIONAL WEATHER SERVICE ALBUQUERQUE NM
900 PM MDT MON MAR 27 2017

NOTE: "FAIR" MEANS FEW OR NO CLOUDS BELOW 12,000 FEET AGL WITH NO
       SIGNIFICANT WEATHER OR OBSTRUCTIONS TO VISION.

      THIS PRODUCT IS RELEASED AS TWO VERSIONS.  ONE VERSION NEAR
      THE TOP OF THE HOUR CONTAINING PRELIMINARY DATA FROM ALBUQUERQUE
      AND OTHER STATIONS.  A FINAL VERSION WITH ADDITIONAL DATA IS
      ISSUED ABOUT 10 MINUTES AFTER THE HOUR.

NMZ501-503-504-510>518-280400-
NORTHWEST PLATEAU/NORTHCENTRAL MOUNTAINS

CITY           SKY/WX    TMP DP  RH WIND       PRES   REMARKS
FARMINGTON     CLOUDY    49  34  56 VRB3      29.81S
LOS ALAMOS     LGT RAIN  46  35  66 E3        29.94R
SANTA FE       CLOUDY    51  35  54 N14       29.89R
TAOS             N/A     45  30  57 NE9       29.94R
ANGEL FIRE     CLOUDY    39  31  72 W15G22    29.96R WCI  31

$$
NMZ402-403-502-505>509-280400-
WESTCENTRAL MOUNTAINS/SOUTHWEST MOUNTAINS

CITY           SKY/WX    TMP DP  RH WIND       PRES   REMARKS
GALLUP         CLOUDY    48  30  49 SW8       29.85S
GRANTS         MOCLDY    44  33  64 CALM      29.90F
SILVER CITY    CLOUDY    59  28  31 W12       29.87S

$$
NMZ407-409-411-412-280400-
SOUTHERN DESERTS

CITY           SKY/WX    TMP DP  RH WIND       PRES   REMARKS
DEMING         FAIR      66  29  24 W15       29.82R
LAS CRUCES     CLOUDY    70  21  15 W10       29.82R
HOLLOMAN AFB   CLOUDY    69  22  16 SE12      29.82R
ALAMOGORDO     CLOUDY    68  25  19 SE12      29.80S
T OR C         FAIR      64  25  22 W8        29.80R

$$
NMZ519>523-280400-
CENTRAL VALLEYS/CENTRAL HIGHLANDS

CITY           SKY/WX    TMP DP  RH WIND       PRES   REMARKS
ALBUQUERQUE    CLOUDY    55  37  50 N16       29.86S
DOUBLE EAGLE   MOCLDY    50  37  62 N6        29.86F
MORIARTY ARPT  FAIR      53  31  42 W6        29.88R
CLINES CORNERS CLOUDY    51  27  39 W13       29.90S
BELEN          CLOUDY    55  34  45 NW9       29.85S
SOCORRO        FAIR      62  29  29 W9        29.82R

$$
NMZ524>526-539-540-280400-
SOUTHCENTRAL MOUNTAINS

CITY           SKY/WX    TMP DP  RH WIND       PRES   REMARKS
RUIDOSO        NOT AVBL

$$
NMZ527>531-280400-
NORTHEAST HIGHLANDS/NORTHEAST PLAINS

CITY           SKY/WX    TMP DP  RH WIND       PRES   REMARKS
LAS VEGAS      CLOUDY    54  25  32 S16G26    29.88R
RATON          CLOUDY    53  32  44 W8        29.85R
CLAYTON        FAIR      52  36  54 SE12      29.85R

$$
NMZ532>537-280400-
EASTCENTRAL PLAINS

CITY           SKY/WX    TMP DP  RH WIND       PRES   REMARKS
TUCUMCARI      MOCLDY    63  29  27 S9        29.78R
CANNON AFB     FAIR      57  33  40 SE12      29.83R
CLOVIS AIRPORT FAIR      57  30  35 SE10      29.85R

$$
NMZ028-029-538-280400-
SOUTHEAST PLAINS

CITY           SKY/WX    TMP DP  RH WIND       PRES   REMARKS
ROSWELL        FAIR      70  18  13 SW14        N/A
ARTESIA        CLOUDY    68  23  18 SW8       29.78S
CARLSBAD       FAIR      67  27  22 SE7       29.77R
HOBBS          FAIR      57  25  28 SE7       29.84R


$$




USA.gov is the U.S. government's official web portal to all federal, state and local government web resources and services.